Вернуться в каталог

FENGYUN 1C DEB

АктивенSSO
NORAD 30803·DEBRIS·🇨🇳 China

Запущен May 10, 1999 с Taiyuan Satellite Launch Center

Loading…

Ближайшие Пролёты (ближайшие 24 часа)

TLE

СвежийSource: Space-Track

Эпоха: Sep 14, 2026, 10:01 UTC

1 30803U 99025AUM 26257.41768937  .00001390  00000-0  73876-3 0  9993
2 30803  99.2265 303.7349 0105928 150.2467 224.2883 14.12406037998898

Отслеживайте FENGYUN 1C DEB в реальном времени с AllMySat

Download on the App Store